TimeCDT,TemperatureF,Dew PointF,Humidity,Sea Level PressureIn,VisibilityMPH,Wind Direction,Wind SpeedMPH,Gust SpeedMPH,PrecipitationIn,Events,Conditions,WindDirDegrees,DateUTC
12:15 AM,53.6,24.8,33,29.84,10.0,South,9.2,-,N/A,,Unknown,190,2012-10-03 05:15:00
12:35 AM,53.6,26.6,35,29.84,10.0,South,8.1,-,N/A,,Unknown,190,2012-10-03 05:35:00
12:55 AM,51.8,24.8,35,29.84,10.0,SSW,6.9,-,N/A,,Unknown,200,2012-10-03 05:55:00
1:15 AM,53.6,24.8,33,29.84,10.0,SSW,8.1,-,N/A,,Unknown,200,2012-10-03 06:15:00
1:35 AM,51.8,26.6,38,29.85,10.0,SSW,8.1,-,N/A,,Unknown,200,2012-10-03 06:35:00
1:55 AM,51.8,26.6,38,29.85,10.0,SSW,8.1,-,N/A,,Unknown,200,2012-10-03 06:55:00
2:15 AM,51.8,26.6,38,29.84,10.0,South,9.2,-,N/A,,Unknown,190,2012-10-03 07:15:00
2:35 AM,51.8,26.6,38,29.84,10.0,South,9.2,-,N/A,,Unknown,190,2012-10-03 07:35:00
2:55 AM,50.0,26.6,40,29.84,10.0,South,6.9,-,N/A,,Unknown,190,2012-10-03 07:55:00
3:15 AM,50.0,26.6,40,29.84,10.0,South,9.2,-,N/A,,Unknown,190,2012-10-03 08:15:00
3:35 AM,51.8,26.6,38,29.84,10.0,SSW,9.2,-,N/A,,Unknown,200,2012-10-03 08:35:00
3:55 AM,51.8,26.6,38,29.84,10.0,SSW,9.2,-,N/A,,Unknown,200,2012-10-03 08:55:00
4:15 AM,51.8,26.6,38,29.84,10.0,SSW,8.1,-,N/A,,Unknown,200,2012-10-03 09:15:00
4:35 AM,50.0,26.6,40,29.84,10.0,SSW,8.1,-,N/A,,Unknown,200,2012-10-03 09:35:00
4:55 AM,50.0,26.6,40,29.84,10.0,SSW,9.2,-,N/A,,Unknown,200,2012-10-03 09:55:00
5:15 AM,50.0,26.6,40,29.85,10.0,SSW,6.9,-,N/A,,Unknown,200,2012-10-03 10:15:00
5:35 AM,48.2,26.6,43,29.85,10.0,SSW,8.1,-,N/A,,Unknown,200,2012-10-03 10:35:00
5:55 AM,48.2,26.6,43,29.85,10.0,SSW,8.1,-,N/A,,Unknown,200,2012-10-03 10:55:00
6:15 AM,48.2,26.6,43,29.85,10.0,SSW,8.1,-,N/A,,Unknown,200,2012-10-03 11:15:00
6:35 AM,48.2,26.6,43,29.85,10.0,SSW,8.1,-,N/A,,Unknown,200,2012-10-03 11:35:00
6:55 AM,46.4,26.6,46,29.86,10.0,South,8.1,-,N/A,,Unknown,190,2012-10-03 11:55:00
7:15 AM,44.6,26.6,49,29.86,7.0,South,9.2,-,N/A,,Unknown,190,2012-10-03 12:15:00
7:35 AM,46.4,26.6,46,29.86,8.0,SSW,6.9,-,N/A,,Unknown,200,2012-10-03 12:35:00
7:55 AM,46.4,26.6,46,29.85,10.0,South,8.1,-,N/A,,Unknown,190,2012-10-03 12:55:00
8:15 AM,48.2,28.4,46,29.85,10.0,South,8.1,-,N/A,,Unknown,190,2012-10-03 13:15:00
8:35 AM,51.8,28.4,41,29.85,10.0,South,9.2,-,N/A,,Unknown,190,2012-10-03 13:35:00
8:55 AM,53.6,28.4,38,29.85,10.0,South,8.1,-,N/A,,Unknown,190,2012-10-03 13:55:00
9:15 AM,55.4,28.4,36,29.85,10.0,South,10.4,-,N/A,,Unknown,190,2012-10-03 14:15:00
9:35 AM,59.0,28.4,31,29.85,10.0,SSW,10.4,-,N/A,,Unknown,200,2012-10-03 14:35:00
9:55 AM,62.6,30.2,30,29.85,10.0,South,10.4,-,N/A,,Unknown,190,2012-10-03 14:55:00
10:15 AM,62.6,30.2,30,29.84,10.0,South,11.5,-,N/A,,Unknown,170,2012-10-03 15:15:00
10:35 AM,64.4,30.2,28,29.84,10.0,South,12.7,-,N/A,,Unknown,180,2012-10-03 15:35:00
10:55 AM,66.2,30.2,26,29.84,10.0,South,13.8,-,N/A,,Unknown,180,2012-10-03 15:55:00
11:15 AM,68.0,30.2,24,29.83,10.0,South,10.4,18.4,N/A,,Unknown,180,2012-10-03 16:15:00
11:35 AM,69.8,30.2,23,29.83,10.0,South,16.1,-,N/A,,Unknown,180,2012-10-03 16:35:00
11:55 AM,71.6,30.2,22,29.82,10.0,SSE,15.0,19.6,N/A,,Unknown,160,2012-10-03 16:55:00
12:15 PM,71.6,30.2,22,29.81,10.0,South,16.1,23.0,N/A,,Unknown,170,2012-10-03 17:15:00
12:55 PM,73.4,28.4,19,29.80,10.0,South,19.6,25.3,N/A,,Unknown,170,2012-10-03 17:55:00
1:15 PM,73.4,30.2,20,29.79,10.0,SSE,13.8,18.4,N/A,,Unknown,160,2012-10-03 18:15:00
1:35 PM,73.4,28.4,19,29.78,10.0,SE,17.3,25.3,N/A,,Unknown,140,2012-10-03 18:35:00
1:55 PM,75.2,28.4,18,29.77,10.0,SSE,19.6,25.3,N/A,,Unknown,160,2012-10-03 18:55:00
2:15 PM,75.2,28.4,18,29.76,10.0,South,18.4,27.6,N/A,,Unknown,170,2012-10-03 19:15:00
2:35 PM,75.2,28.4,18,29.76,10.0,South,20.7,26.5,N/A,,Unknown,170,2012-10-03 19:35:00
2:55 PM,75.2,30.2,19,29.75,10.0,South,19.6,27.6,N/A,,Unknown,170,2012-10-03 19:55:00
3:15 PM,75.2,30.2,19,29.76,10.0,SSE,16.1,26.5,N/A,,Unknown,160,2012-10-03 20:15:00
3:35 PM,75.2,30.2,19,29.75,10.0,South,18.4,26.5,N/A,,Unknown,170,2012-10-03 20:35:00
3:55 PM,75.2,30.2,19,29.74,10.0,SSE,18.4,24.2,N/A,,Unknown,160,2012-10-03 20:55:00
4:15 PM,75.2,30.2,19,29.74,10.0,South,16.1,24.2,N/A,,Unknown,170,2012-10-03 21:15:00
4:35 PM,75.2,30.2,19,29.74,10.0,South,20.7,27.6,N/A,,Unknown,170,2012-10-03 21:35:00
4:55 PM,73.4,30.2,20,29.73,10.0,SSE,12.7,19.6,N/A,,Unknown,150,2012-10-03 21:55:00
5:15 PM,73.4,30.2,20,29.73,10.0,SSE,19.6,25.3,N/A,,Unknown,160,2012-10-03 22:15:00
5:35 PM,73.4,30.2,20,29.74,10.0,SSE,17.3,-,N/A,,Unknown,160,2012-10-03 22:35:00
5:55 PM,73.4,30.2,20,29.75,10.0,SSE,17.3,23.0,N/A,,Unknown,160,2012-10-03 22:55:00
6:15 PM,73.4,30.2,20,29.76,9.0,SSE,16.1,19.6,N/A,,Unknown,160,2012-10-03 23:15:00
6:35 PM,73.4,30.2,20,29.76,9.0,SSE,13.8,23.0,N/A,,Unknown,160,2012-10-03 23:35:00
6:55 PM,71.6,30.2,22,29.77,10.0,South,12.7,-,N/A,,Unknown,170,2012-10-03 23:55:00
7:15 PM,69.8,30.2,23,29.77,10.0,SSE,10.4,-,N/A,,Unknown,160,2012-10-04 00:15:00
7:35 PM,69.8,30.2,23,29.76,10.0,SSE,10.4,-,N/A,,Unknown,160,2012-10-04 00:35:00
7:55 PM,66.2,30.2,26,29.76,10.0,SSE,8.1,-,N/A,,Unknown,150,2012-10-04 00:55:00
8:15 PM,66.2,30.2,26,29.76,10.0,SSE,11.5,-,N/A,,Unknown,150,2012-10-04 01:15:00
8:35 PM,66.2,30.2,26,29.77,10.0,SSE,9.2,-,N/A,,Unknown,150,2012-10-04 01:35:00
8:55 PM,66.2,32.0,28,29.77,10.0,SSE,9.2,-,N/A,,Unknown,150,2012-10-04 01:55:00
9:15 PM,66.2,32.0,28,29.77,10.0,SSE,11.5,17.3,N/A,,Unknown,160,2012-10-04 02:15:00
9:35 PM,66.2,30.2,26,29.77,10.0,SSE,13.8,19.6,N/A,,Unknown,160,2012-10-04 02:35:00
9:55 PM,64.4,32.0,30,29.77,10.0,SSE,15.0,20.7,N/A,,Unknown,160,2012-10-04 02:55:00
10:15 PM,64.4,32.0,30,29.77,10.0,South,18.4,23.0,N/A,,Unknown,170,2012-10-04 03:15:00
10:35 PM,64.4,32.0,30,29.78,10.0,South,15.0,21.9,N/A,,Unknown,180,2012-10-04 03:35:00
10:55 PM,62.6,32.0,32,29.79,10.0,SSW,12.7,23.0,N/A,,Unknown,200,2012-10-04 03:55:00
11:15 PM,60.8,32.0,34,29.78,10.0,South,11.5,-,N/A,,Unknown,180,2012-10-04 04:15:00
11:35 PM,59.0,33.8,39,29.79,9.0,WSW,19.6,25.3,N/A,,Unknown,240,2012-10-04 04:35:00
11:55 PM,53.6,33.8,47,29.81,9.0,WSW,20.7,28.8,N/A,,Unknown,250,2012-10-04 04:55:00